Simultaneous Nadir Overpasses (SNOs) Predictions

Prediction of SNOs between GOES-16 and NOAA-20 Satellite Orbit:

Table of predicted SNOs for the next 14.0 days since TLE Epoch: 7/9/2022
Index Date Time (GOES-16) GOES-16 Lat,Lon NOAA-20 Lat,Lon Distance(km) Time Diff (sec)
1 07/09/2022 18:39:21 -0.03, -75.21 -0.80, -78.75 403.81 80
2 07/10/2022 18:23:16 -0.02, -75.21 0.20, -74.22 112.84 80
3 07/12/2022 06:45:03 0.00, -75.21 0.94, -79.49 487.43 80
4 07/13/2022 06:23:38 -0.01, -75.21 -0.06, -74.96 29.11 80
5 07/15/2022 18:26:48 0.02, -75.23 -0.12, -75.72 57.16 80
6 07/16/2022 18:10:43 0.02, -75.24 0.95, -71.20 460.68 80
7 07/18/2022 06:32:29 -0.01, -75.26 0.25, -76.46 137.16 80
8 07/19/2022 06:11:04 0.01, -75.27 -0.75, -71.93 381.37 80
9 07/20/2022 18:32:59 0.01, -75.30 -0.42, -77.23 220.45 80
10 07/21/2022 18:16:54 0.02, -75.32 0.59, -72.70 298.14 80
